IRIDIUM 33 DEB, 34497

Orbit data source: Space-Track

IRIDIUM 33 DEB, 34497 is space debris in LEO originally from a launch on Sun, 14 Sep 1997 UTC launched from the Tyuratam Missile And Space Complex (TTMTR). The debris from Iridium 33, an American commercial communications satellite, has been tracked extensively since its accidental collision with the defunct Russian satellite Cosmos 2251 in 2009. This event, occurring at high speed in low Earth orbit (LEO), generated thousands of pieces of space debris, significantly increasing the risk of further collisions. The Iridium 33 debris cloud has impacted space traffic management and orbital debris mitigation strategies, making it a subject of ongoing study in space situational awareness.

Loading next visibility...
Identifier
34497, 1997-051GN
Orbit
LEO
Country
Flag of USUS
Related business
Manufacturer
Unknown
Mission
Spacecraft
Bus & Motor
Unknown
Mass
Unknown
Launch date (UTC)
1997-09-14 (28 years ago)
Launch vehicle
Unknown
Launch site
Tyuratam Missile And Space Complex (TTMTR)
Object type
Payload
Rocket body
Debris
Shape & HBR
Unknown shape, 0.1 m
Radar Cross Section
Small (<0.1 m²)

Expand to show TLE details & history
Last TLE update: 10 hours ago

TLE from 10 hours ago
0 IRIDIUM 33 DEB
1 34497U 97051GN  25303.13889211  .00003055  00000-0  11991-2 0  9991
2 34497  86.2759  71.0202 0081990 118.5724  56.7792 14.27234487862614
Epoch: 2025-10-30T03:20Z
TLE epoch observation values (Epoch: 2025-10-30T03:20:00.278Z)
Latitude
3.75408°
Longitude
162.07367°
Altitude
771.705 km
Speed
7.485 km/s
True Right ascension
16h 43m 06s
True Declination
3° 43' 54"
Sunlit
Object was in daylight at epoch
Visualization orbit readout
Latitude
Unknown
Longitude
Unknown
Altitude
Unknown
Speed
Unknown
Apparent Right ascension
Unknown
Apparent Declination
Unknown
Sunlit
N/A
Visualization observer readout
Local Sidereal Time
09:10:39
Azimuth
Unknown
Elevation
Unknown
Doppler factor
Unknown
Orbital elements
Apogee altitude
856.803 km
Perigee altitude
739.129 km
Semi-major axis
7,176.103 km
Eccentricity
0.0082
Inclination
86.2759°
RAAN
71.0202°
Arg. of periapsis
118.5724°
True anomaly
57.5696°
Mean anomaly
56.7792°
Eccentric anomaly
57.17396°
Mean motion
3.57034 °/min
Orbital period
100.83 mins
BSTAR
0.0011991
Loading maneuver chart data...
Computing Atmospheric mass density...

Documentation

Showing up to 5 results
|